INFORMACIÓN METAR y TAF
METAR FOR LEBZ
ADDS - METARS form results

(0010 UTC 29 September 2020)
Data provider http://aviationweather.gov/metar/data/
 
Forecast for: LEBZ (TALAVERA AB/BADA, ES)
Text: TAF LEBZ 282300Z 2900/2924 06004KT CAVOK TX31/2915Z TN12/2906Z
Forecast period: 0000 UTC 29 September 2020 to 0000 UTC 30 September 2020
Forecast type: FROM: standard forecast or significant change
Winds: from the ENE (60 degrees) at 5 MPH (4 knots; 2.1 m/s)
Visibility: 6 or more miles (10+ km)
Ceiling: unknown
Clouds: missing
Weather: no significant weather forecast for this period

 MAPA DE AEROPUERTO

 INFORMACIÓN DE PISTA
Pista 13 Longitud 9350 ft Ancho 197 ft
Elevación 579 ft Umbral desplazado 0 ft Rumbo de pista 126
Pista 31 Longitud 9350 ft Ancho 197 ft
Elevación 609 ft Umbral desplazado 0 ft Rumbo de pista 306

 FRECUANCIAS DEL AEROPUERTO
Tipo APP Nombre APP Frecuencia 139.3 MHZ
Tipo TWR Nombre BADAJOZ TW Frecuencia 122.1 MHZ

 RADIO AYUDAS DEL AEROPUERTO
Tipo NDB Nombre Badajoz Frecuencia 298 KHZ
Tipo TACAN Nombre Talavera Frecuencia 108800 KHZ
Tipo VOR-DME Nombre Badajoz Frecuencia 116800 KHZ




Powered by Virtual Airlines Manager